Starlink 4049

operational
NORAD ID: 52840 Int'l Des: 2022-062 Owner: SPXS Country: US Constellation: starlink
LEOCIRCULAR

Starlink 4049について

説明を読み込み中...

リアルタイム位置

3D地球を読み込み中...

次回通過

高度履歴

Altitude vs Time

uPlot chart will show altitude changes over time

軌道要素

1 52840U 22062L 26033.44784008 .00000106 00000-0 24753-4 0 9992
2 52840 53.2162 192.4421 0001412 79.3614 280.7537 15.08839530200467
Epoch: Feb 2, 2026 • Age: 23 hours

現在のステータス

高度 558.7 km
速度 7.58 km/s
衛星直下点 -51.90°S, 153.78°E
打ち上げ日 Jun 17, 2022
運用期間 3.6 years
タイプ internet

技術仕様

分類 Payload
質量 297.00 kg
乾燥質量 275.00 kg
総質量 297.00 kg
長さ 0.20 m
直径 2.80 m
スパン 9.00 m
形状 Box + pan
製造者 SPXS
バスタイプ Starlink
フェーズステータス In Orbit
所有者/国 SPXS/US

大規模コンステレーション

Loading constellations...